Date_and_time,latitude,longitude,wind_speed,RelWindDirFrom,WindDirFrom,air_pressure,air_temperature,relative_humidity,Temp,platform_speed_wrt_ground,air_pressure_at_mean_sea_level,platform_orientation
2019-10-10 23:50,50.6304383333333,-96.9807566666667,19.6,27.1,335,989.98,1.0,101,7.70,0.0,1017.75,248.5
2019-10-11 00:00,50.630435,-96.98075,19.7,28.5,337,989.85,1.0,101,7.69,0.0,1017.63,0.0
2019-10-11 00:10,50.630435,-96.9807533333333,18.4,25.9,332,989.84,0.7,101,7.68,0.0,1017.62,0.0
2019-10-11 00:20,50.6304316666667,-96.9807633333333,18.7,27.1,334,989.79,0.7,101,7.68,0.0,1017.61,0.0
2019-10-11 00:30,50.6304233333333,-96.9807416666667,19.5,28.9,335,989.71,0.7,101,7.68,0.0,1017.54,0.0
2019-10-11 00:40,50.6304433333333,-96.9807733333333,18.0,24.5,337,989.96,0.8,101,7.65,0.0,1017.77,0.0
2019-10-11 00:50,50.6304366666667,-96.980755,20.3,29.0,341,989.84,0.9,101,7.61,0.0,1017.63,0.0
2019-10-11 01:00,50.6304416666667,-96.980775,25.0,35.3,346,989.48,1.4,101,7.60,0.0,1017.24,311.9
2019-10-11 01:10,50.63044,-96.98075,27.4,36.9,348,989.37,1.7,101,7.59,0.0,1017.10,311.9
2019-10-11 01:20,50.6304283333333,-96.9807866666667,27.4,37.4,349,989.31,1.7,101,7.54,0.0,1017.03,311.9
2019-10-11 01:30,50.6304383333333,-96.98076,18.9,26.4,338,989.71,1.2,101,7.52,0.0,1017.51,311.9
2019-10-11 01:40,50.6304466666667,-96.9807633333333,19.4,29.6,340,989.65,1.1,101,7.51,0.0,1017.46,311.9
2019-10-11 01:50,50.6304366666667,-96.9807583333333,21.5,31.6,345,989.68,1.3,101,7.49,0.0,1017.48,311.9
2019-10-11 02:00,50.63044,-96.980755,22.7,34.7,344,989.64,1.3,101,7.47,0.0,1017.44,32.5
2019-10-11 02:10,50.6304283333333,-96.9807616666667,24.8,36.9,347,989.35,1.4,101,7.46,0.0,1017.14,32.5
2019-10-11 02:20,50.6304466666667,-96.9807633333333,25.6,32.5,347,989.15,1.4,101,7.45,0.0,1016.94,32.5
2019-10-11 02:30,50.6304266666667,-96.9807766666667,24.6,38.7,345,989.09,1.3,101,7.43,0.0,1016.88,32.5
2019-10-11 02:40,50.630435,-96.9807566666667,21.7,29.8,341,989.03,1.0,101,7.41,0.0,1016.82,32.5
2019-10-11 02:50,50.6304416666667,-96.98078,21.0,28.1,340,989.00,1.0,101,7.39,0.0,1016.77,32.5
2019-10-11 03:00,50.6304366666667,-96.98075,21.2,31.2,341,988.87,1.0,101,7.38,0.0,1016.62,0.0
2019-10-11 03:10,50.63043,-96.9807616666667,19.1,26.2,337,988.93,0.8,101,7.35,0.0,1016.69,0.0
2019-10-11 03:20,50.6304383333333,-96.98077,18.7,25.2,339,988.75,0.7,101,7.35,0.0,1016.55,0.0
2019-10-11 03:30,50.63042,-96.9807633333333,18.6,27.5,340,988.54,0.8,101,7.34,0.0,1016.32,0.0
2019-10-11 03:40,50.630435,-96.9807666666667,22.2,31.0,344,988.11,1.1,101,7.32,0.0,1015.86,0.0
2019-10-11 03:50,50.6304266666667,-96.9807583333333,23.1,33.6,343,987.85,1.2,101,7.28,0.0,1015.59,0.0
2019-10-11 04:00,50.630435,-96.9807783333333,23.9,36.6,343,987.54,1.1,101,7.27,0.0,1015.27,240.8
2019-10-11 04:10,50.6304383333333,-96.9807516666667,25.6,33.4,348,987.29,1.4,101,7.25,0.0,1014.99,240.8
2019-10-11 04:20,50.6304283333333,-96.9807533333333,28.7,36.4,350,986.94,1.5,101,7.24,0.0,1014.63,240.8
2019-10-11 04:30,50.63043,-96.9807616666667,26.7,35.3,346,987.10,1.3,101,7.21,0.0,1014.82,240.8
2019-10-11 04:40,50.6304433333333,-96.98076,27.3,34.4,346,987.06,1.3,101,7.20,0.0,1014.78,240.8
2019-10-11 04:50,50.6304266666667,-96.98077,25.2,37.2,345,987.02,1.4,101,7.18,0.0,1014.73,240.8
2019-10-11 05:00,50.6304233333333,-96.9807466666667,26.4,35.3,346,986.58,1.3,101,7.16,0.0,1014.30,147.5
2019-10-11 05:10,50.6304483333333,-96.980765,28.5,37.2,349,986.44,1.5,101,7.15,0.0,1014.15,147.5
2019-10-11 05:20,50.630445,-96.98078,25.7,37.5,344,986.41,1.4,101,7.12,0.0,1014.12,147.5
2019-10-11 05:30,50.6304183333333,-96.9807533333333,24.2,35.0,342,986.31,1.3,101,7.10,0.0,1014.01,147.5
2019-10-11 05:40,50.6304416666667,-96.9807533333333,24.4,34.1,346,986.25,1.5,101,7.09,0.0,1013.94,147.5
2019-10-11 05:50,50.6304166666667,-96.9807633333333,26.0,38.9,347,985.95,1.5,101,7.10,0.0,1013.62,147.5
2019-10-11 06:00,50.63043,-96.9807616666667,25.1,36.7,345,986.04,1.5,101,7.09,0.0,1013.71,194.5
2019-10-11 06:10,50.630435,-96.98075,22.1,34.5,342,985.98,1.6,101,7.08,0.0,1013.63,194.5
2019-10-11 06:20,50.6304366666667,-96.9807766666667,19.5,32.0,339,985.96,1.3,101,7.08,0.0,1013.63,194.5
2019-10-11 06:30,50.6304466666667,-96.9807466666667,19.3,27.2,337,985.70,1.2,101,7.07,0.0,1013.38,194.5
2019-10-11 06:40,50.6304383333333,-96.980735,18.5,27.2,336,985.80,1.1,101,7.07,0.0,1013.48,194.5
2019-10-11 06:50,50.630435,-96.980745,19.8,34.4,338,985.48,1.0,101,7.07,0.0,1013.15,194.5
2019-10-11 07:00,50.6304383333333,-96.9807566666667,20.7,34.7,339,985.09,1.1,101,7.06,0.0,1012.74,72.3
2019-10-11 07:10,50.6304516666667,-96.98077,19.5,26.5,336,984.75,0.9,101,7.05,0.0,1012.41,72.3
2019-10-11 07:20,50.6304233333333,-96.9807383333333,18.8,25.9,335,984.67,0.7,101,7.03,0.0,1012.35,72.3
2019-10-11 07:30,50.63043,-96.9807583333333,18.7,26.8,334,984.71,0.5,101,7.02,0.0,1012.39,72.3
2019-10-11 07:40,50.630435,-96.98076,18.5,26.1,331,984.55,0.4,101,7.02,0.0,1012.23,72.3
2019-10-11 07:50,50.6304416666667,-96.98077,17.7,24.0,334,984.63,0.4,101,7.00,0.0,1012.31,72.3
2019-10-11 08:00,50.63043,-96.9807533333333,16.7,25.1,333,984.90,0.5,101,7.00,0.0,1012.58,270.0
2019-10-11 08:10,50.6304166666667,-96.980755,16.8,22.5,329,984.50,0.4,101,7.00,0.0,1012.18,270.0
2019-10-11 08:20,50.6304283333333,-96.9807566666667,19.5,26.8,335,983.83,0.3,101,6.99,0.0,1011.51,270.0
2019-10-11 08:30,50.6304333333333,-96.9807383333333,19.1,26.7,334,983.74,0.4,101,6.98,0.0,1011.41,270.0
2019-10-11 08:40,50.6304316666667,-96.980765,19.2,28.5,333,983.82,0.4,101,6.97,0.0,1011.50,270.0
2019-10-11 08:50,50.63043,-96.9807566666667,18.8,27.2,332,983.78,0.4,101,6.95,0.0,1011.45,270.0
2019-10-11 09:00,50.63044,-96.9807833333333,19.6,27.2,334,983.55,0.3,101,6.95,0.0,1011.24,317.0
2019-10-11 09:10,50.6304316666667,-96.9807716666667,19.2,28.4,331,983.26,0.2,101,6.93,0.0,1010.95,317.0
2019-10-11 09:20,50.630435,-96.9807566666667,18.5,26.2,331,983.16,0.2,101,6.92,0.0,1010.85,317.0
2019-10-11 09:30,50.6304383333333,-96.9807516666667,19.1,27.3,331,983.01,0.1,101,6.92,0.0,1010.71,317.0
2019-10-11 09:40,50.6304416666667,-96.9807716666667,18.4,25.7,331,982.87,0.1,101,6.90,0.0,1010.57,317.0
2019-10-11 09:50,50.6304466666667,-96.9807533333333,19.1,28.8,334,982.86,0.1,101,6.88,0.0,1010.56,317.0
2019-10-11 10:00,50.63044,-96.9807366666667,19.0,26.9,333,982.72,0.1,101,6.86,0.0,1010.42,90.0
2019-10-11 10:10,50.6304433333333,-96.9807866666667,19.1,27.5,333,982.61,0.2,101,6.85,0.0,1010.30,90.0
2019-10-11 10:20,50.6304283333333,-96.980755,20.0,32.4,335,982.34,0.2,101,6.83,0.0,1010.02,90.0
2019-10-11 10:30,50.630445,-96.980755,20.0,27.3,334,982.06,0.2,101,6.83,0.0,1009.73,90.0
2019-10-11 10:40,50.63044,-96.9807733333333,21.6,29.7,335,981.51,0.1,101,6.83,0.0,1009.17,90.0
2019-10-11 10:50,50.6304433333333,-96.98078,20.7,29.2,335,981.24,0.1,101,6.82,0.0,1008.90,90.0
2019-10-11 11:00,50.63043,-96.9807616666667,20.4,28.6,334,981.17,0.1,101,6.79,0.0,1008.83,270.0
2019-10-11 11:10,50.6304416666667,-96.9807533333333,19.3,28.3,334,980.96,0.1,101,6.78,0.0,1008.61,270.0
2019-10-11 11:20,50.630435,-96.9807616666667,18.8,26.1,335,981.08,0.1,101,6.77,0.0,1008.74,270.0
2019-10-11 11:30,50.63044,-96.9807633333333,18.3,23.8,332,980.92,0.1,101,6.75,0.0,1008.58,270.0
2019-10-11 11:40,50.6304283333333,-96.9807683333333,17.7,24.8,332,981.05,0.0,101,6.72,0.0,1008.71,270.0
2019-10-11 11:50,50.630445,-96.9807583333333,16.3,22.8,329,981.23,-0.0,101,6.72,0.0,1008.90,270.0
2019-10-11 12:00,50.6304383333333,-96.98078,17.4,25.8,330,980.90,-0.1,101,6.71,0.0,1008.56,0.0
2019-10-11 12:10,50.63043,-96.98076,18.1,25.9,334,980.63,-0.0,101,6.70,0.0,1008.28,0.0
2019-10-11 12:20,50.6304433333333,-96.9807933333333,17.5,28.6,332,980.47,-0.1,101,6.68,0.0,1008.12,0.0
2019-10-11 12:30,50.6304416666667,-96.98075,18.7,26.6,333,980.04,-0.2,101,6.67,0.0,1007.69,0.0
2019-10-11 12:40,50.630435,-96.9807533333333,20.2,29.4,334,979.71,-0.2,101,6.66,0.0,1007.35,0.0
2019-10-11 12:50,50.6304383333333,-96.98076,19.1,27.4,335,979.67,-0.2,101,6.63,0.0,1007.31,0.0
2019-10-11 13:00,50.6304383333333,-96.9807566666667,21.6,28.9,336,979.42,-0.2,101,6.63,0.0,1007.05,270.0
2019-10-11 13:10,50.6304466666667,-96.9807633333333,21.9,30.3,338,979.24,-0.1,101,6.62,0.0,1006.86,270.0
2019-10-11 13:20,50.63043,-96.980765,23.1,31.9,338,978.82,-0.1,101,6.62,0.0,1006.43,270.0
2019-10-11 13:30,50.6304466666667,-96.98076,22.3,30.1,337,978.72,-0.1,101,6.60,0.0,1006.33,270.0
2019-10-11 13:40,50.630455,-96.9807666666667,21.3,28.8,336,978.51,-0.1,101,6.57,0.0,1006.11,270.0
2019-10-11 13:50,50.630445,-96.98077,20.8,27.4,337,978.27,-0.0,101,6.56,0.0,1005.87,270.0
2019-10-11 14:00,50.6304383333333,-96.9807533333333,22.7,30.5,339,978.05,0.0,101,6.55,0.0,1005.64,360.0
2019-10-11 14:10,50.6304316666667,-96.980775,20.1,29.9,338,978.17,0.1,101,6.55,0.0,1005.76,360.0
2019-10-11 14:20,50.6304483333333,-96.98079,21.0,30.0,336,977.97,0.1,101,6.55,0.0,1005.56,360.0
2019-10-11 14:30,50.630435,-96.98076,21.6,30.4,334,977.92,0.1,101,6.54,0.0,1005.51,360.0
2019-10-11 14:40,50.6304316666667,-96.9807416666667,21.3,30.2,334,977.59,0.0,101,6.50,0.0,1005.17,360.0
2019-10-11 14:50,50.63043,-96.98075,22.0,29.4,335,977.52,0.0,101,6.51,0.0,1005.10,360.0
2019-10-11 15:00,50.630445,-96.9807383333333,24.2,36.3,335,976.79,0.0,101,6.51,0.0,1004.35,90.0
2019-10-11 15:10,50.6304416666667,-96.9807483333333,25.2,40.3,336,976.41,0.0,100,6.48,0.0,1003.96,90.0
2019-10-11 15:20,50.63043,-96.98075,25.2,34.7,339,976.37,0.1,100,6.47,0.0,1003.91,90.0
2019-10-11 15:30,50.6304316666667,-96.98078,25.3,34.9,337,976.10,0.1,100,6.46,0.0,1003.64,90.0
2019-10-11 15:40,50.630415,-96.9807733333333,25.5,34.6,337,975.70,0.1,100,6.45,0.0,1003.21,90.0
2019-10-11 15:50,50.630425,-96.9807816666667,25.9,39.3,338,975.37,0.1,100,6.44,0.0,1002.87,90.0
2019-10-11 16:00,50.6304133333333,-96.980765,25.3,37.3,340,975.24,0.2,100,6.42,0.0,1002.74,193.3
2019-10-11 16:10,50.6304333333333,-96.9807466666667,26.6,41.5,338,974.58,0.3,100,6.41,0.0,1002.05,193.3
2019-10-11 16:20,50.6304316666667,-96.9807416666667,25.3,35.6,337,974.23,0.2,100,6.40,0.0,1001.69,193.3
2019-10-11 16:30,50.6304333333333,-96.9807316666667,26.8,41.3,337,973.75,0.2,100,6.38,0.0,1001.20,193.3
2019-10-11 16:40,50.630435,-96.980765,26.2,37.3,338,973.69,0.2,100,6.37,0.0,1001.15,193.3
2019-10-11 16:50,50.6304266666667,-96.980765,26.4,38.2,338,973.77,0.3,100,6.37,0.0,1001.22,193.3
2019-10-11 17:00,50.63044,-96.9807716666667,23.1,35.3,341,975.00,0.3,100,6.37,0.0,1002.48,270.0
2019-10-11 17:10,50.6304316666667,-96.9807516666667,24.4,37.5,337,975.35,0.4,100,6.36,0.0,1002.83,270.0
2019-10-11 17:20,50.6304233333333,-96.980745,24.3,33.8,337,974.62,0.4,100,6.35,0.0,1002.08,270.0
2019-10-11 17:30,50.6304483333333,-96.980755,24.1,34.5,338,974.29,0.4,100,6.35,0.0,1001.75,270.0
2019-10-11 17:40,50.6304383333333,-96.9807566666667,24.2,32.3,337,973.92,0.2,100,6.36,0.0,1001.37,270.0
2019-10-11 17:50,50.6304366666667,-96.98074,24.4,34.5,339,973.77,0.2,100,6.35,0.0,1001.21,270.0
2019-10-11 18:00,50.6304316666667,-96.98076,24.2,33.2,338,973.77,0.3,100,6.32,0.0,1001.21,235.2
2019-10-11 18:10,50.630425,-96.98077,26.4,36.6,337,972.51,0.3,100,6.31,0.0,999.92,235.2
2019-10-11 18:20,50.6304233333333,-96.9807566666667,27.8,38.2,340,971.81,0.2,100,6.29,0.0,999.21,235.2
2019-10-11 18:30,50.6304266666667,-96.9807583333333,27.8,37.6,338,971.53,0.2,100,6.26,0.0,998.91,235.2
2019-10-11 18:40,50.6304216666667,-96.9807516666667,28.5,35.7,340,971.19,0.2,100,6.23,0.0,998.56,235.2
2019-10-11 18:50,50.630425,-96.980725,26.5,40.7,339,971.02,0.2,101,6.25,0.0,998.38,235.2
2019-10-11 19:00,50.630445,-96.9807666666667,26.2,36.3,337,970.55,0.2,101,6.25,0.0,997.89,28.9
2019-10-11 19:10,50.6304216666667,-96.9807533333333,25.9,37.6,338,970.20,0.3,101,6.24,0.0,997.53,28.9
2019-10-11 19:20,50.6304183333333,-96.9807466666667,26.3,39.6,341,970.89,0.3,101,6.23,0.0,998.24,28.9
2019-10-11 19:30,50.6304283333333,-96.9807633333333,25.5,35.5,340,970.82,0.4,101,6.23,0.0,998.17,28.9
2019-10-11 19:40,50.630435,-96.98076,27.1,36.1,338,969.76,0.4,101,6.22,0.0,997.08,28.9
2019-10-11 19:50,50.630425,-96.980765,25.6,35.0,342,970.10,0.5,101,6.20,0.0,997.43,28.9
2019-10-11 20:00,50.6304316666667,-96.9807683333333,25.8,41.6,342,970.19,0.5,101,6.21,0.0,997.51,165.5
2019-10-11 20:10,50.6304283333333,-96.980765,25.6,36.3,341,970.18,0.6,101,6.21,0.0,997.50,165.5
2019-10-11 20:20,50.630415,-96.9807416666667,23.9,32.7,342,970.19,0.7,101,6.21,0.0,997.51,165.5
2019-10-11 20:30,50.6304233333333,-96.9807716666667,25.5,36.4,342,970.24,0.8,101,6.19,0.0,997.55,165.5
2019-10-11 20:40,50.6304316666667,-96.9807533333333,26.1,34.7,343,970.01,0.8,101,6.18,0.0,997.32,165.5
2019-10-11 20:50,50.63042,-96.9807633333333,27.5,38.5,345,969.64,1.0,101,6.18,0.0,996.92,165.5
2019-10-11 21:00,50.6304333333333,-96.9807766666667,29.9,41.2,348,969.54,1.2,101,6.17,0.0,996.82,270.0
2019-10-11 21:10,50.6304316666667,-96.9807683333333,30.1,40.2,348,969.32,1.4,101,6.16,0.0,996.57,270.0
2019-10-11 21:20,50.6304216666667,-96.9807483333333,29.4,42.2,346,969.05,1.4,101,6.17,0.0,996.29,270.0
2019-10-11 21:30,50.6304133333333,-96.9807366666667,27.0,37.6,344,968.92,1.4,101,6.18,0.0,996.16,270.0
2019-10-11 21:40,50.63042,-96.9807683333333,27.4,34.5,345,969.00,1.2,101,6.18,0.0,996.25,270.0
2019-10-11 21:50,50.63043,-96.98075,26.9,37.6,347,969.01,1.5,101,6.16,0.0,996.24,270.0
2019-10-11 22:00,50.6304383333333,-96.9807583333333,25.0,33.2,345,969.21,1.4,101,6.15,0.0,996.44,90.0
2019-10-11 22:10,50.6304316666667,-96.98077,27.0,39.0,346,969.25,1.6,101,6.15,0.0,996.47,90.0
2019-10-11 22:20,50.6304483333333,-96.980765,25.5,35.6,346,969.41,1.6,101,6.15,0.0,996.63,90.0
2019-10-11 22:30,50.6304283333333,-96.9807616666667,24.0,31.5,347,969.51,1.6,101,6.14,0.0,996.73,90.0
2019-10-11 22:40,50.6304166666667,-96.980755,26.0,38.7,350,969.43,1.7,101,6.12,0.0,996.63,90.0
2019-10-11 22:50,50.6304366666667,-96.9807633333333,27.4,37.5,353,969.32,2.0,101,6.12,0.0,996.50,90.0
2019-10-11 23:00,50.6304366666667,-96.98076,24.0,39.1,349,969.59,1.7,101,6.12,0.0,996.78,48.3
2019-10-11 23:10,50.6304316666667,-96.9807683333333,24.3,33.9,350,969.77,1.8,101,6.11,0.0,996.96,48.3
2019-10-11 23:20,50.630425,-96.98075,26.6,33.7,354,969.73,1.9,101,6.06,0.0,996.91,48.3
2019-10-11 23:30,50.6304266666667,-96.9807566666667,28.2,37.2,353,969.56,1.9,101,6.02,0.0,996.75,48.3
